Hourly Weather Samak

Today, 28 September, Monday

Time Temperature Precipitation Wind Pressure Humidity
00:00 +13°C° 0 mm 1 mps 674 mmHg 30%
01:00 +13°C° 0 mm 1 mps 674 mmHg 31%
02:00 +13°C° 0 mm 1 mps 674 mmHg 31%
03:00 +12°C° 0 mm 1 mps 674 mmHg 32%
04:00 +12°C° 0 mm 1 mps 674 mmHg 33%
05:00 +13°C° 0 mm 1 mps 675 mmHg 30%
06:00 +15°C° 0 mm 1 mps 676 mmHg 28%
07:00 +16°C° 0 mm 1 mps 676 mmHg 25%
08:00 +18°C° 0 mm 2 mps 677 mmHg 23%
09:00 +19°C° 0 mm 2 mps 677 mmHg 21%
10:00 +21°C° 0 mm 3 mps 678 mmHg 19%
11:00 +21°C° 0 mm 3 mps 677 mmHg 19%
12:00 +21°C° 0 mm 3 mps 677 mmHg 19%
13:00 +21°C° 0 mm 4 mps 677 mmHg 19%
14:00 +20°C° 0 mm 3 mps 677 mmHg 19%
15:00 +20°C° 0 mm 3 mps 677 mmHg 20%
16:00 +19°C° 0 mm 3 mps 677 mmHg 21%
17:00 +17°C° 0 mm 2 mps 676 mmHg 23%
18:00 +16°C° 0 mm 1 mps 676 mmHg 26%
19:00 +15°C° 0 mm 1 mps 676 mmHg 28%
20:00 +14°C° 0 mm 1 mps 676 mmHg 29%
21:00 +14°C° 0 mm 1 mps 676 mmHg 30%
22:00 +14°C° 0 mm 2 mps 676 mmHg 31%
23:00 +14°C° 0.4 mm 2 mps 676 mmHg 39%

Tomorrow, 29 September, Tuesday

Time Temperature Precipitation Wind Pressure Humidity
00:00 +13°C° 0.4 mm 3 mps 676 mmHg 46%
01:00 +13°C° 0.4 mm 3 mps 676 mmHg 53%
02:00 +13°C° 0 mm 2 mps 676 mmHg 54%
03:00 +13°C° 0 mm 2 mps 676 mmHg 55%
04:00 +13°C° 0 mm 1 mps 676 mmHg 56%
05:00 +13°C° 0.1 mm 1 mps 676 mmHg 59%
06:00 +12°C° 0.1 mm 1 mps 677 mmHg 61%
07:00 +12°C° 0.1 mm 1 mps 677 mmHg 63%
08:00 +13°C° 0 mm 2 mps 677 mmHg 60%
09:00 +14°C° 0 mm 2 mps 678 mmHg 57%
10:00 +15°C° 0 mm 2 mps 678 mmHg 54%
11:00 +15°C° 0 mm 2 mps 678 mmHg 55%
12:00 +15°C° 0 mm 2 mps 677 mmHg 56%
13:00 +15°C° 0 mm 2 mps 677 mmHg 57%
14:00 +14°C° 0 mm 2 mps 677 mmHg 58%
15:00 +14°C° 0 mm 2 mps 677 mmHg 60%
16:00 +14°C° 0 mm 2 mps 676 mmHg 61%
17:00 +13°C° 0.2 mm 2 mps 676 mmHg 64%
18:00 +13°C° 0.2 mm 2 mps 677 mmHg 67%
19:00 +12°C° 0.2 mm 2 mps 677 mmHg 70%
20:00 +12°C° 0.1 mm 2 mps 677 mmHg 72%
21:00 +11°C° 0.1 mm 1 mps 677 mmHg 74%
22:00 +11°C° 0.1 mm 1 mps 677 mmHg 76%
23:00 +11°C° 0.1 mm 1 mps 677 mmHg 77%

Day after tomorrow, 30 September, Wednesday

Time Temperature Precipitation Wind Pressure Humidity
00:00 +10°C° 0.1 mm 2 mps 677 mmHg 77%
01:00 +10°C° 0.1 mm 2 mps 676 mmHg 78%
02:00 +9°C° 0 mm 2 mps 676 mmHg 78%
03:00 +9°C° 0 mm 2 mps 677 mmHg 77%
04:00 +10°C° 0 mm 1 mps 677 mmHg 77%
05:00 +11°C° 0.1 mm 1 mps 677 mmHg 74%
06:00 +11°C° 0.1 mm 1 mps 677 mmHg 72%
07:00 +11°C° 0.1 mm 1 mps 677 mmHg 70%
08:00 +12°C° 0 mm 2 mps 677 mmHg 63%
09:00 +13°C° 0 mm 2 mps 678 mmHg 57%
10:00 +14°C° 0 mm 2 mps 678 mmHg 51%
11:00 +15°C° 0 mm 2 mps 678 mmHg 47%
12:00 +16°C° 0 mm 2 mps 677 mmHg 43%
13:00 +17°C° 0 mm 3 mps 677 mmHg 40%
14:00 +17°C° 0 mm 2 mps 677 mmHg 38%
15:00 +17°C° 0 mm 2 mps 677 mmHg 36%
16:00 +17°C° 0 mm 2 mps 676 mmHg 35%
17:00 +15°C° 0 mm 2 mps 676 mmHg 38%
18:00 +13°C° 0 mm 1 mps 676 mmHg 41%
19:00 +11°C° 0 mm 0 mps 676 mmHg 45%
20:00 +11°C° 0 mm 1 mps 676 mmHg 46%
21:00 +11°C° 0 mm 1 mps 675 mmHg 48%
22:00 +11°C° 0 mm 1 mps 675 mmHg 50%
23:00 +10°C° 0 mm 1 mps 675 mmHg 50%

1 October, Thursday

Time Temperature Precipitation Wind Pressure Humidity
00:00 +10°C° 0 mm 1 mps 675 mmHg 51%
01:00 +10°C° 0 mm 1 mps 675 mmHg 51%
02:00 +10°C° 0 mm 1 mps 674 mmHg 51%
03:00 +9°C° 0 mm 1 mps 674 mmHg 50%
04:00 +9°C° 0 mm 1 mps 674 mmHg 50%
05:00 +11°C° 0 mm 1 mps 675 mmHg 45%
06:00 +12°C° 0 mm 1 mps 675 mmHg 41%
07:00 +14°C° 0 mm 1 mps 676 mmHg 36%
08:00 +15°C° 0 mm 1 mps 676 mmHg 33%
09:00 +17°C° 0 mm 2 mps 676 mmHg 30%
10:00 +18°C° 0 mm 2 mps 677 mmHg 27%
11:00 +19°C° 0 mm 2 mps 676 mmHg 26%
12:00 +19°C° 0 mm 3 mps 676 mmHg 25%
13:00 +20°C° 0 mm 3 mps 676 mmHg 25%
14:00 +20°C° 0 mm 3 mps 676 mmHg 25%
15:00 +19°C° 0 mm 3 mps 676 mmHg 26%
16:00 +19°C° 0 mm 3 mps 675 mmHg 27%
17:00 +17°C° 0 mm 2 mps 675 mmHg 31%
18:00 +15°C° 0 mm 1 mps 675 mmHg 34%
19:00 +13°C° 0 mm 1 mps 675 mmHg 38%
20:00 +13°C° 0 mm 1 mps 675 mmHg 38%
21:00 +12°C° 0 mm 1 mps 675 mmHg 39%
22:00 +12°C° 0 mm 1 mps 675 mmHg 40%
23:00 +12°C° 0 mm 1 mps 675 mmHg 41%

2 October, Friday

Time Temperature Precipitation Wind Pressure Humidity
00:00 +11°C° 0 mm 1 mps 675 mmHg 41%
01:00 +11°C° 0 mm 1 mps 675 mmHg 42%
02:00 +11°C° 0 mm 1 mps 675 mmHg 42%
03:00 +10°C° 0 mm 1 mps 675 mmHg 43%
04:00 +10°C° 0 mm 1 mps 675 mmHg 44%
05:00 +12°C° 0 mm 1 mps 675 mmHg 40%
06:00 +13°C° 0 mm 1 mps 676 mmHg 37%
07:00 +14°C° 0 mm 1 mps 677 mmHg 33%
08:00 +16°C° 0 mm 1 mps 677 mmHg 29%
09:00 +17°C° 0 mm 2 mps 677 mmHg 25%
10:00 +19°C° 0 mm 3 mps 677 mmHg 21%
11:00 +19°C° 0 mm 3 mps 677 mmHg 20%
12:00 +20°C° 0 mm 4 mps 677 mmHg 18%
13:00 +21°C° 0 mm 4 mps 677 mmHg 16%
14:00 +20°C° 0 mm 4 mps 677 mmHg 16%
15:00 +20°C° 0 mm 4 mps 677 mmHg 16%
16:00 +19°C° 0 mm 3 mps 676 mmHg 16%
17:00 +17°C° 0 mm 3 mps 676 mmHg 20%
18:00 +15°C° 0 mm 2 mps 676 mmHg 23%
19:00 +13°C° 0 mm 1 mps 676 mmHg 26%
20:00 +13°C° 0 mm 1 mps 676 mmHg 27%
21:00 +12°C° 0 mm 1 mps 676 mmHg 28%
22:00 +12°C° 0 mm 1 mps 675 mmHg 29%
23:00 +12°C° 0 mm 1 mps 675 mmHg 30%

3 October, Saturday

Time Temperature Precipitation Wind Pressure Humidity
00:00 +12°C° 0 mm 2 mps 675 mmHg 30%
01:00 +12°C° 0 mm 2 mps 675 mmHg 30%
02:00 +12°C° 0 mm 2 mps 675 mmHg 30%
03:00 +10°C° 0 mm 2 mps 675 mmHg 31%
04:00 +10°C° 0 mm 2 mps 675 mmHg 31%
05:00 +12°C° 0 mm 2 mps 676 mmHg 30%
06:00 +14°C° 0 mm 2 mps 676 mmHg 28%
07:00 +15°C° 0 mm 2 mps 677 mmHg 27%
08:00 +16°C° 0 mm 2 mps 677 mmHg 24%
09:00 +18°C° 0 mm 3 mps 678 mmHg 21%
10:00 +20°C° 0 mm 3 mps 678 mmHg 17%
11:00 +20°C° 0 mm 3 mps 678 mmHg 17%
12:00 +21°C° 0 mm 4 mps 678 mmHg 16%
13:00 +21°C° 0 mm 4 mps 678 mmHg 15%
14:00 +21°C° 0 mm 4 mps 678 mmHg 16%
15:00 +20°C° 0 mm 3 mps 677 mmHg 17%
16:00 +20°C° 0 mm 3 mps 677 mmHg 17%
17:00 +18°C° 0 mm 2 mps 677 mmHg 21%
18:00 +16°C° 0 mm 1 mps 677 mmHg 24%
19:00 +14°C° 0 mm 1 mps 676 mmHg 28%
20:00 +13°C° 0 mm 1 mps 676 mmHg 28%
21:00 +13°C° 0 mm 1 mps 676 mmHg 28%
22:00 +12°C° 0 mm 1 mps 676 mmHg 28%
23:00 +12°C° 0 mm 1 mps 676 mmHg 28%
Show more